| Date | Time | Temp. (oF) | Dew Point (oF) | Rel. Hum. (%) | Press. (in.) | Wind Dir. | Wind Speed (mph) | Hourly Rainfall (in.) |
|
|---|---|---|---|---|---|---|---|---|---|
| 1 | 01/16 | 00:00 | 38 | 37 | 100 | 30.00 | SSE | 1 | 0.00 |
| 2 | 01/15 | 23:00 | 39 | 38 | 97 | 30.01 | NNW | 0 | 0.00 |
| 3 | 01/15 | 22:00 | 38 | 37 | 98 | 30.02 | E | 0 | 0.00 |
| 4 | 01/15 | 21:00 | 38 | 37 | 98 | 30.02 | N | 0 | 0.00 |
| 5 | 01/15 | 20:00 | 38 | 37 | 98 | 30.03 | NNE | 0 | 0.00 |
| 6 | 01/15 | 19:00 | 38 | 37 | 98 | 30.03 | SSE | 1 | 0.00 |
| 7 | 01/15 | 18:00 | 38 | 37 | 98 | 30.00 | ESE | 5 | 0.00 |
| 8 | 01/15 | 17:00 | 39 | 38 | 97 | 30.01 | NE | 1 | 0.00 |
| 9 | 01/15 | 16:00 | 39 | 38 | 97 | 30.02 | NE | 1 | 0.00 |
| 10 | 01/15 | 15:00 | 40 | 38 | 95 | 30.03 | E | 2 | 0.00 |
| 11 | 01/15 | 14:00 | 40 | 38 | 94 | 30.03 | NNE | 2 | 0.00 |
| 12 | 01/15 | 13:00 | 39 | 37 | 95 | 30.05 | S | 4 | 0.00 |
| 13 | 01/15 | 12:00 | 39 | 37 | 95 | 30.07 | SSE | 1 | 0.00 |
| 14 | 01/15 | 11:00 | 39 | 37 | 94 | 30.10 | ENE | 3 | 0.00 |
| 15 | 01/15 | 10:00 | 38 | 36 | 96 | 30.13 | NE | 3 | 0.00 |
| 16 | 01/15 | 09:00 | 37 | 35 | 96 | 30.14 | ENE | 2 | 0.00 |
| 17 | 01/15 | 08:00 | 37 | 35 | 96 | 30.14 | NW | 2 | 0.00 |
| 18 | 01/15 | 07:00 | 38 | 36 | 96 | 30.15 | NNE | 4 | 0.00 |
| 19 | 01/15 | 06:00 | 37 | 36 | 97 | 30.14 | E | 3 | 0.01 |
| 20 | 01/15 | 05:00 | 36 | 35 | 97 | 30.14 | NE | 5 | 0.00 |
| 21 | 01/15 | 04:00 | 37 | 35 | 95 | 30.14 | ESE | 0 | 0.00 |
| 22 | 01/15 | 03:00 | 37 | 35 | 94 | 30.15 | NNE | 1 | 0.04 |
| 23 | 01/15 | 02:00 | 37 | 35 | 94 | 30.16 | ENE | 0 | 0.01 |
| 24 | 01/15 | 01:00 | 37 | 35 | 93 | 30.16 | ENE | 1 | 0.00 |